Flag for Canada Weather past 2 weeks in Dieppe, New Brunswick, Canada

Now
52 °F

Light rain. Partly sunny.


Feels Like: 51 °F
Forecast: N/A
Wind: 5 mph from South

Location: Moncton


UV Index: N/A

Visibility: 15 mi


Pressure: 29.45 "Hg

Humidity: 88%

Dew point: 48 °F

Location of DieppeLocation

Historic Weather in Dieppe

°F

Dieppe temperature yesterday

Maximum temperature yesterday: 55 °F (at 5:00 PM)
Minimum temperature yesterday: 37 °F (at 1:00 AM)
Average temperature yesterday: 44 °F

Past Weeks' High & Low Weather Summary

 TemperatureHumidityPressure
High66 °F (Apr 15, 5:00 PM)100% (Apr 9, 12:00 AM)30.84 "Hg (Apr 9, 12:00 AM)
Low19 °F (Apr 17, 6:00 AM)20% (Apr 20, 6:00 PM)29.21 "Hg (Apr 9, 4:00 AM)
Average42 °F64%30.01 "Hg
* Reported Apr 8 3:00 PM — Apr 23 3:00 PM, Dieppe, Weather by CustomWeather, © 2014

Note: Actual official high and low records may vary slightly from our data, if they occured in-between our weather recording intervals... More about our weather records

Advertising

Historic Weather Conditions — Data for Previous 24 hours

 ConditionsComfort  
Time TempWeatherWind HumidityBarometerVisibility
3:00 PM
Apr 23
52 °FLight rain. Partly sunny.9 mph88%29.46 "Hg15 mi
2:00 PM54 °FOvercast.12 mph72%29.46 "Hg15 mi
1:00 PM55 °FPartly sunny.10 mph67%29.47 "Hg15 mi
12:00 PM54 °FPartly sunny.8 mph72%29.49 "Hg15 mi
11:00 AM50 °FPartly sunny.9 mph76%29.50 "Hg15 mi
10:00 AM48 °FPartly sunny.12 mph82%29.51 "Hg15 mi
9:00 AM48 °FMore clouds than sun.9 mph82%29.53 "Hg15 mi
8:00 AM46 °FMore clouds than sun.9 mph87%29.53 "Hg15 mi
7:00 AM45 °FOvercast.3 mph93%29.54 "Hg15 mi
6:00 AM45 °FMostly cloudy.5 mph93%29.54 "Hg15 mi
5:00 AM45 °FMostly cloudy.9 mph93%29.54 "Hg12 mi
4:53 AM43 °FMostly cloudy.8 mph93%29.55 "Hg12 mi
4:00 AM41 °FOvercast.2 mph87%29.57 "Hg15 mi
3:00 AM39 °FMostly cloudy.5 mph93%29.58 "Hg15 mi
2:00 AM39 °FOvercast.3 mph93%29.60 "Hg15 mi
1:00 AM39 °FOvercast.6 mph93%29.62 "Hg15 mi
12:00 AM41 °FOvercast.3 mph87%29.63 "Hg15 mi
11:00 PM
Apr 22
41 °FOvercast.3 mph87%29.65 "Hg15 mi
10:00 PM41 °FOvercast.7 mph87%29.66 "Hg15 mi
9:00 PM41 °FSprinkles. Overcast.8 mph87%29.66 "Hg15 mi
8:00 PM41 °FSprinkles. Overcast.9 mph87%29.66 "Hg15 mi
7:00 PM46 °FOvercast.9 mph76%29.66 "Hg15 mi
6:00 PM50 °FOvercast.9 mph71%29.66 "Hg15 mi
5:00 PM55 °FMostly cloudy.3 mph67%29.67 "Hg15 mi
4:00 PM50 °FBroken clouds.2 mph76%29.69 "Hg15 mi
Weather by CustomWeather, © 2014

See weather overview